When you browse on this site, cookies collect data to enhance your experience and personalize the content and advertising you see.
Visit our Privacy Policy to learn more. By continuing to use the site, you agree to this use of cookies and data.
  • En España
  • Lista de países
  • Para 7 días
  • Temperatura del agua
  • El tiempo en el mapa
  • Informadores
  • user-avatar
    Iniciar sesión

    Tiempo cada hora Kabwe

    Hoy, 17 Febrero, Lunes

    Tiempo Temperatura Precipitaciones Viento Presión Humedad
    00:00 +18°C° 0 mm 0 mps 661 mmHg 96%
    01:00 +18°C° 0 mm 0 mps 661 mmHg 96%
    02:00 +18°C° 0 mm 0 mps 661 mmHg 94%
    03:00 +18°C° 0 mm 0 mps 661 mmHg 93%
    04:00 +18°C° 0 mm 0 mps 661 mmHg 93%
    05:00 +18°C° 0 mm 0 mps 661 mmHg 93%
    06:00 +19°C° 0 mm 0 mps 661 mmHg 92%
    07:00 +21°C° 0 mm 1 mps 662 mmHg 91%
    08:00 +22°C° 0 mm 1 mps 663 mmHg 89%
    09:00 +24°C° 0 mm 1 mps 663 mmHg 82%
    10:00 +26°C° 0 mm 1 mps 663 mmHg 74%
    11:00 +27°C° 0 mm 2 mps 663 mmHg 67%
    12:00 +28°C° 0.2 mm 2 mps 662 mmHg 67%
    13:00 +28°C° 0.2 mm 2 mps 662 mmHg 67%
    14:00 +28°C° 0 mm 1 mps 662 mmHg 64%
    15:00 +28°C° 0.6 mm 1 mps 661 mmHg 68%
    16:00 +27°C° 0.6 mm 1 mps 661 mmHg 72%
    17:00 +27°C° 0.6 mm 1 mps 660 mmHg 77%
    18:00 +25°C° 0.5 mm 1 mps 660 mmHg 82%
    19:00 +24°C° 0.5 mm 1 mps 661 mmHg 87%
    20:00 +22°C° 0.5 mm 1 mps 661 mmHg 93%
    21:00 +22°C° 0.6 mm 1 mps 661 mmHg 94%
    22:00 +21°C° 0.6 mm 1 mps 661 mmHg 95%
    23:00 +21°C° 0.6 mm 1 mps 661 mmHg 96%

    Mañana, 18 Febrero, Martes

    Tiempo Temperatura Precipitaciones Viento Presión Humedad
    00:00 +21°C° 0.2 mm 1 mps 661 mmHg 97%
    01:00 +21°C° 0.2 mm 1 mps 660 mmHg 97%
    02:00 +20°C° 0.2 mm 1 mps 660 mmHg 98%
    03:00 +20°C° 0 mm 1 mps 660 mmHg 98%
    04:00 +20°C° 0 mm 1 mps 660 mmHg 98%
    05:00 +20°C° 0 mm 1 mps 660 mmHg 98%
    06:00 +21°C° 0 mm 1 mps 661 mmHg 97%
    07:00 +21°C° 0 mm 1 mps 662 mmHg 96%
    08:00 +21°C° 0 mm 2 mps 663 mmHg 95%
    09:00 +24°C° 0 mm 2 mps 663 mmHg 89%
    10:00 +25°C° 0 mm 2 mps 662 mmHg 83%
    11:00 +26°C° 0 mm 2 mps 662 mmHg 77%
    12:00 +27°C° 0.3 mm 2 mps 662 mmHg 74%
    13:00 +28°C° 0.3 mm 2 mps 662 mmHg 71%
    14:00 +28°C° 0.3 mm 2 mps 662 mmHg 68%
    15:00 +28°C° 0.3 mm 3 mps 661 mmHg 73%
    16:00 +27°C° 0.3 mm 3 mps 660 mmHg 77%
    17:00 +26°C° 0.3 mm 3 mps 659 mmHg 81%
    18:00 +25°C° 0 mm 3 mps 660 mmHg 85%
    19:00 +23°C° 0 mm 2 mps 660 mmHg 89%
    20:00 +21°C° 0 mm 2 mps 660 mmHg 93%
    21:00 +21°C° 0 mm 2 mps 661 mmHg 95%
    22:00 +20°C° 0 mm 2 mps 661 mmHg 96%
    23:00 +20°C° 0 mm 2 mps 661 mmHg 97%

    Pasado mañana, 19 Febrero, Miércoles

    Tiempo Temperatura Precipitaciones Viento Presión Humedad
    00:00 +20°C° 0.2 mm 2 mps 661 mmHg 98%
    01:00 +20°C° 0.2 mm 2 mps 661 mmHg 98%
    02:00 +20°C° 0.2 mm 2 mps 661 mmHg 98%
    03:00 +20°C° 0.3 mm 2 mps 661 mmHg 97%
    04:00 +20°C° 0.3 mm 3 mps 661 mmHg 96%
    05:00 +20°C° 0.3 mm 3 mps 661 mmHg 95%
    06:00 +21°C° 0.1 mm 3 mps 661 mmHg 94%
    07:00 +21°C° 0.1 mm 3 mps 662 mmHg 93%
    08:00 +21°C° 0.1 mm 4 mps 662 mmHg 91%
    09:00 +22°C° 0 mm 3 mps 662 mmHg 87%
    10:00 +24°C° 0 mm 3 mps 662 mmHg 83%
    11:00 +25°C° 0 mm 3 mps 662 mmHg 79%
    12:00 +26°C° 0.1 mm 3 mps 662 mmHg 77%
    13:00 +27°C° 0.1 mm 2 mps 661 mmHg 74%
    14:00 +28°C° 0.1 mm 2 mps 661 mmHg 71%
    15:00 +27°C° 0.1 mm 2 mps 661 mmHg 73%
    16:00 +27°C° 0.1 mm 2 mps 660 mmHg 76%
    17:00 +27°C° 0.1 mm 3 mps 660 mmHg 78%
    18:00 +25°C° 0.5 mm 3 mps 660 mmHg 84%
    19:00 +24°C° 0.5 mm 3 mps 660 mmHg 89%
    20:00 +21°C° 0.5 mm 3 mps 660 mmHg 95%
    21:00 +21°C° 1.8 mm 2 mps 661 mmHg 96%
    22:00 +20°C° 1.8 mm 2 mps 661 mmHg 97%
    23:00 +21°C° 1.8 mm 1 mps 661 mmHg 97%

    20 Febrero, Jueves

    Tiempo Temperatura Precipitaciones Viento Presión Humedad
    00:00 +21°C° 0.9 mm 1 mps 661 mmHg 97%
    01:00 +21°C° 0.9 mm 1 mps 661 mmHg 97%
    02:00 +21°C° 0.9 mm 1 mps 661 mmHg 97%
    03:00 +21°C° 0.6 mm 1 mps 660 mmHg 97%
    04:00 +20°C° 0.6 mm 1 mps 660 mmHg 96%
    05:00 +20°C° 0.6 mm 1 mps 660 mmHg 96%
    06:00 +18°C° 0.1 mm 0 mps 661 mmHg 96%
    07:00 +19°C° 0.1 mm 0 mps 661 mmHg 95%
    08:00 +19°C° 0.1 mm 0 mps 661 mmHg 94%
    09:00 +20°C° 0 mm 0 mps 662 mmHg 91%
    10:00 +23°C° 0 mm 1 mps 662 mmHg 87%
    11:00 +24°C° 0 mm 1 mps 662 mmHg 84%
    12:00 +25°C° 0 mm 1 mps 662 mmHg 78%
    13:00 +26°C° 0 mm 1 mps 661 mmHg 73%
    14:00 +27°C° 0 mm 1 mps 661 mmHg 67%
    15:00 +27°C° 0 mm 1 mps 660 mmHg 70%
    16:00 +27°C° 0 mm 1 mps 660 mmHg 72%
    17:00 +26°C° 0 mm 1 mps 659 mmHg 75%
    18:00 +25°C° 0 mm 1 mps 659 mmHg 80%
    19:00 +23°C° 0 mm 1 mps 659 mmHg 85%
    20:00 +21°C° 0 mm 1 mps 660 mmHg 91%
    21:00 +21°C° 0 mm 1 mps 660 mmHg 92%
    22:00 +21°C° 0 mm 1 mps 660 mmHg 93%
    23:00 +18°C° 0 mm 0 mps 660 mmHg 94%

    21 Febrero, Viernes

    Tiempo Temperatura Precipitaciones Viento Presión Humedad
    00:00 +18°C° 0 mm 0 mps 660 mmHg 94%
    01:00 +20°C° 0 mm 1 mps 660 mmHg 95%
    02:00 +20°C° 0 mm 1 mps 660 mmHg 95%
    03:00 +18°C° 0 mm 0 mps 660 mmHg 95%
    04:00 +17°C° 0 mm 0 mps 660 mmHg 95%
    05:00 +17°C° 0 mm 0 mps 659 mmHg 96%
    06:00 +19°C° 0 mm 0 mps 660 mmHg 92%
    07:00 +20°C° 0 mm 0 mps 661 mmHg 88%
    08:00 +21°C° 0 mm 0 mps 662 mmHg 85%
    15:00 +29°C° 1.2 mm 1 mps 660 mmHg 68%
    16:00 +28°C° 1.2 mm 1 mps 660 mmHg 75%
    17:00 +27°C° 1.2 mm 1 mps 659 mmHg 82%
    18:00 +26°C° 0.7 mm 1 mps 659 mmHg 86%
    19:00 +24°C° 0.7 mm 1 mps 659 mmHg 89%
    20:00 +23°C° 0.7 mm 1 mps 659 mmHg 92%
    21:00 +22°C° 0.1 mm 1 mps 659 mmHg 92%
    22:00 +22°C° 0.1 mm 1 mps 660 mmHg 93%
    23:00 +21°C° 0.1 mm 1 mps 660 mmHg 93%

    22 Febrero, Sábado

    Tiempo Temperatura Precipitaciones Viento Presión Humedad
    00:00 +21°C° 0 mm 1 mps 660 mmHg 94%
    01:00 +21°C° 0 mm 1 mps 659 mmHg 94%
    02:00 +20°C° 0 mm 1 mps 659 mmHg 94%
    03:00 +20°C° 0 mm 1 mps 659 mmHg 95%
    04:00 +20°C° 0 mm 1 mps 659 mmHg 95%
    05:00 +20°C° 0 mm 1 mps 659 mmHg 96%
    06:00 +21°C° 0 mm 1 mps 660 mmHg 94%
    07:00 +22°C° 0 mm 1 mps 661 mmHg 91%
    08:00 +23°C° 0 mm 1 mps 661 mmHg 89%
    09:00 +25°C° 1.1 mm 1 mps 661 mmHg 86%
    10:00 +26°C° 1.1 mm 1 mps 661 mmHg 82%
    11:00 +27°C° 1.1 mm 2 mps 661 mmHg 78%
    12:00 +28°C° 1.9 mm 1 mps 661 mmHg 78%
    13:00 +28°C° 1.9 mm 1 mps 660 mmHg 77%
    14:00 +28°C° 1.9 mm 1 mps 660 mmHg 77%
    15:00 +28°C° 2 mm 1 mps 659 mmHg 79%
    16:00 +27°C° 2 mm 1 mps 659 mmHg 82%
    17:00 +27°C° 2 mm 1 mps 659 mmHg 85%
    18:00 +25°C° 0.2 mm 1 mps 659 mmHg 88%
    19:00 +24°C° 0.2 mm 1 mps 659 mmHg 90%
    20:00 +22°C° 0.2 mm 1 mps 659 mmHg 93%
    21:00 +22°C° 0 mm 1 mps 659 mmHg 93%
    22:00 +22°C° 0 mm 1 mps 660 mmHg 93%
    23:00 +21°C° 0 mm 1 mps 660 mmHg 93%
    Mostrar más